Milwaukee, WI

12:15 AM CST on February 22, 2017 (GMT -0600)
Timmerman

Weather History for KMWC - May, 2013

Change the Weather History Date:

Monday, May 27, 2013

  Actual Average Record
Temperature  
Mean Temperature 50 °F -  
Max Temperature 53 °F 74 °F 93 °F (1978)
Min Temperature 48 °F 50 °F 30 °F (1961)
Degree Days  
Heating Degree Days 14    
Moisture  
Dew Point 42 °F    
Average Humidity 75    
Maximum Humidity 94    
Minimum Humidity 51    
Precipitation  
Precipitation 0.00 in - - ()
Sea Level Pressure  
Sea Level Pressure 30.06 in    
Wind  
Wind Speed 6 mph (East)    
Max Wind Speed 14 mph    
Max Gust Speed 23 mph    
Visibility 8 miles    
Events Rain    
Averages and records for this station are not official NWS values.
T = Trace of Precipitation, MM = Missing Value Source: NWS Daily Summary

Daily Weather History Graph

Daily Weather History Graph

Search for Another Location

Airport or City:

Trip Planner

Search our weather history database for the weather conditions in past years. The results will help you decide how hot, cold, wet, or windy it might be!

Date:

Astronomy

May. 27, 2013 Rise Set
Actual Time 5:18 AM CDT 8:21 PM CDT
Civil Twilight 4:44 AM CDT 8:55 PM CDT
Nautical Twilight 4:00 AM CDT 9:38 PM CDT
Astronomical Twilight 3:08 AM CDT 10:30 PM CDT
Moon 10:58 PM CDT (5/27) 7:56 AM CDT (5/27)
Length of Visible Light 16h 11m
Length of Day
15h 02m
Waning Gibbous, 91% of the Moon is Illuminated
May 27
Waning Gibbous
May 31
Last Quarter
Jun 8
New
Jun 16
First Quarter
Jun 23
Full

Hourly Weather History & Observations

Time (CDT) Temp. Dew Point Humidity Pressure Visibility Wind Dir Wind Speed Gust Speed Precip Events Conditions
12:15 AM 50.0 °F 35.6 °F 58% 30.20 in 10.0 mi Calm Calm - N/A   Overcast
12:35 AM 50.0 °F 35.6 °F 58% 30.19 in 10.0 mi ENE 3.5 mph - N/A   Overcast
12:55 AM 50.0 °F 37.4 °F 62% 30.18 in 10.0 mi NE 5.8 mph - N/A   Overcast
1:15 AM 50.0 °F 35.6 °F 58% 30.18 in 10.0 mi Calm Calm - N/A   Overcast
1:35 AM 50.0 °F 37.4 °F 62% 30.16 in 10.0 mi NE 4.6 mph - N/A   Overcast
1:55 AM 50.0 °F 37.4 °F 62% 30.15 in 10.0 mi NE 5.8 mph - N/A   Overcast
2:15 AM 50.0 °F 37.4 °F 62% 30.14 in 10.0 mi ENE 4.6 mph - N/A   Overcast
2:35 AM 50.0 °F 37.4 °F 62% 30.14 in 10.0 mi ENE 5.8 mph - N/A   Overcast
2:55 AM 51.8 °F 37.4 °F 58% 30.13 in 10.0 mi East 6.9 mph - N/A   Overcast
3:15 AM 51.8 °F 37.4 °F 58% 30.12 in 10.0 mi East 5.8 mph - N/A   Overcast
3:35 AM 51.8 °F 37.4 °F 58% 30.11 in 10.0 mi East 6.9 mph - N/A   Overcast
3:55 AM 51.8 °F 39.2 °F 62% 30.11 in 10.0 mi East 3.5 mph - N/A   Overcast
4:15 AM 51.8 °F 39.2 °F 62% 30.11 in 10.0 mi ESE 5.8 mph - N/A   Overcast
4:35 AM 51.8 °F 39.2 °F 62% 30.11 in 10.0 mi East 4.6 mph - N/A   Overcast
4:55 AM 51.8 °F 37.4 °F 58% 30.11 in 10.0 mi East 5.8 mph - N/A   Overcast
5:15 AM 51.8 °F 37.4 °F 58% 30.11 in 10.0 mi East 5.8 mph - N/A   Overcast
5:35 AM 51.8 °F 37.4 °F 58% 30.10 in 10.0 mi East 5.8 mph - N/A   Overcast
5:55 AM 51.8 °F 37.4 °F 58% 30.10 in 10.0 mi ESE 6.9 mph - N/A   Overcast
6:15 AM 53.6 °F 37.4 °F 54% 30.11 in 10.0 mi ESE 8.1 mph - N/A   Overcast
6:35 AM 53.6 °F 35.6 °F 51% 30.11 in 10.0 mi SE 8.1 mph - N/A   Overcast
6:45 AM 53.6 °F 37.4 °F 54% 30.12 in 10.0 mi SE 10.4 mph - N/A   Overcast
6:55 AM 53.6 °F 37.4 °F 54% 30.12 in 10.0 mi SE 8.1 mph - N/A   Overcast
7:45 AM 53.6 °F 46.4 °F 77% 30.12 in 3.0 mi ESE 11.5 mph - N/A Rain Light Rain
8:45 AM 51.8 °F 46.4 °F 82% 30.11 in 2.0 mi East 13.8 mph - N/A Rain Rain
9:20 AM 50.0 °F 48.2 °F 94% 30.10 in 1.5 mi ESE 8.1 mph - N/A   Light Drizzle
9:45 AM 50.0 °F 48.2 °F 94% 30.09 in 1.5 mi East 11.5 mph - N/A Rain Light Rain
10:45 AM 51.8 °F 48.2 °F 88% 30.06 in 1.5 mi ESE 13.8 mph 20.7 mph N/A Rain Light Rain
11:45 AM 50.0 °F 48.2 °F 94% 30.08 in 1.5 mi ESE 13.8 mph - N/A Rain Light Rain
12:45 PM 50.0 °F 46.4 °F 87% 30.07 in 2.0 mi ESE 13.8 mph - N/A Rain Light Rain
1:45 PM 50.0 °F 46.4 °F 87% 30.06 in 2.5 mi ESE 13.8 mph 23.0 mph N/A   Mostly Cloudy
2:45 PM 50.0 °F 46.4 °F 87% 30.03 in 3.0 mi East 11.5 mph 19.6 mph N/A   Overcast
3:45 PM 50.0 °F 46.4 °F 87% 30.01 in 2.0 mi East 8.1 mph 20.7 mph N/A   Overcast
4:45 PM 48.2 °F 46.4 °F 93% 29.98 in 4.0 mi East 11.5 mph - N/A   Overcast
5:45 PM 48.2 °F 46.4 °F 93% 29.98 in 7.0 mi ESE 9.2 mph 17.3 mph N/A   Overcast
6:45 PM 48.2 °F 46.4 °F 93% 29.97 in 2.5 mi East 11.5 mph - N/A   Overcast
7:45 PM 48.2 °F 46.4 °F 93% 29.96 in 2.5 mi East 6.9 mph 16.1 mph N/A Rain Light Rain
8:45 PM 48.2 °F 46.4 °F 93% 29.95 in 3.0 mi East 10.4 mph - N/A   Overcast
9:15 PM 48.2 °F 46.4 °F 93% 29.95 in 10.0 mi East 4.6 mph - N/A   Overcast
9:35 PM 48.2 °F 46.4 °F 93% 29.93 in 10.0 mi East 6.9 mph - N/A   Overcast
9:55 PM 48.2 °F 46.4 °F 93% 29.95 in 10.0 mi East 5.8 mph - N/A   Overcast
10:15 PM 48.2 °F 46.4 °F 93% 29.95 in 10.0 mi ESE 6.9 mph - N/A   Overcast
10:35 PM 48.2 °F 46.4 °F 93% 29.94 in 10.0 mi East 5.8 mph - N/A   Overcast
10:55 PM 48.2 °F 46.4 °F 93% 29.95 in 10.0 mi ESE 3.5 mph - N/A   Overcast
11:15 PM 48.2 °F 46.4 °F 93% 29.95 in 10.0 mi ESE 4.6 mph - N/A   Overcast
11:35 PM 48.2 °F 46.4 °F 93% 29.93 in 7.0 mi East 4.6 mph - N/A   Overcast
11:55 PM 48.2 °F 46.4 °F 93% 29.92 in 7.0 mi ESE 3.5 mph - N/A   Overcast